Theta_e
311 311 311 310 311 311 312 313 313 315 314 312 313 313 312 312 311 311 312 317 317 314 309 307 308 311 313 313 314 316 315 316 315 314 314 314 313 312 314 313 315 315 315 316 314 314 314
311 311 311 311 311 311 312 312 312 313 313 313 310 313 314 315 315 315 316 315 313 308 308 311 312 313 314 316 315 315 315 315 314 314 314 313 313 313 313 313 313 313 314 314 314 314 313
310 311 311 310 311 312 311 310 310 310 311 311 312 313 314 314 314 315 312 308 306 311 310 310 310 312 311 313 314 315 314 313 314 313 313 313 313 313 313 312 311 314 314 313 314 314 314
311 310 310 310 311 311 311 310 307 307 308 307 307 307 307 309 311 307 307 309 310 309 309 309 310 311 312 313 313 310 311 311 312 312 312 312 312 313 314 311 312 314 312 313 312 315 314
310 310 310 310 311 310 308 307 307 306 306 306 307 307 307 308 308 308 307 308 308 308 309 309 309 309 310 310 310 310 310 309 310 311 311 312 312 313 312 315 313 311 313 315 314 313 315
310 308 306 305 304 304 304 304 305 305 305 304 307 307 307 308 308 308 308 308 308 308 309 309 308 307 307 308 308 308 308 309 309 309 311 313 312 312 309 312 310 313 314 314 313 311 312
311 305 303 305 305 304 303 303 303 303 304 304 306 307 308 307 307 308 308 310 307 305 307 307 308 308 308 308 309 310 309 309 309 310 311 312 311 308 308 309 311 310 308 308 307 308 310
311 310 301 301 303 304 305 304 304 304 304 304 304 306 307 308 309 306 306 307 307 308 308 307 308 308 309 309 310 310 310 310 309 310 308 306 308 307 309 308 308 309 308 307 307 308 308
307 308 309 303 300 300 302 303 304 304 305 305 304 304 305 305 308 310 307 308 308 309 310 308 307 307 308 309 309 309 309 309 309 309 309 307 307 307 308 308 308 309 307 308 309 308 306
310 307 306 308 306 303 300 300 301 302 302 303 304 304 304 305 308 309 308 307 308 308 302 304 307 308 308 308 310 308 309 309 308 310 307 307 308 308 308 308 307 307 306 309 310 309 308
314 312 307 306 306 308 305 303 299 299 299 299 301 303 306 306 307 309 307 306 308 306 298 302 306 307 308 308 307 308 309 307 308 306 304 303 308 307 307 308 307 307 307 308 310 309 307
313 314 313 310 306 305 307 307 304 302 299 299 299 303 305 306 306 309 308 307 308 303 297 306 308 308 309 309 309 308 309 307 305 306 305 304 305 306 306 307 306 306 308 309 309 307 309
314 313 314 314 312 307 306 306 308 307 303 299 300 304 304 305 306 306 306 307 304 302 304 306 307 309 309 309 307 308 306 304 303 299 299 302 307 306 306 306 306 306 308 307 306 309 308
314 314 313 314 314 313 310 306 306 308 308 301 301 307 305 306 307 306 310 304 301 305 308 308 309 309 310 307 306 308 305 302 302 301 299 303 302 306 306 306 306 306 311 312 311 305 307
313 314 314 313 314 314 313 312 308 306 308 303 302 308 308 309 305 309 304 303 305 309 309 309 308 309 305 308 305 304 304 301 301 301 301 303 304 303 304 305 305 309 308 310 312 305 312
313 313 313 313 313 313 315 314 312 308 307 302 304 308 309 308 306 308 303 309 310 309 308 308 309 306 305 304 304 302 302 302 302 301 299 302 303 302 305 304 304 306 306 305 304 309 311
314 313 313 313 313 313 314 315 313 309 307 301 307 303 309 305 305 306 302 307 309 308 307 308 308 307 306 304 303 303 302 302 301 301 300 302 301 301 304 304 306 305 306 307 303 308 305
313 314 313 313 313 314 315 315 314 310 307 304 305 303 307 305 305 303 306 311 307 308 306 306 306 305 306 305 303 303 302 301 300 300 302 301 301 300 301 302 302 304 305 306 305 303 305
313 313 313 312 312 313 313 315 315 312 307 304 301 303 307 307 302 304 307 308 307 307 307 306 307 306 305 304 303 302 302 302 300 301 301 302 299 297 299 299 302 302 301 303 299 299 303
313 313 313 312 312 312 313 313 314 313 308 306 301 304 306 302 302 305 306 305 308 306 306 306 305 303 302 302 301 302 302 302 300 300 305 301 298 299 297 300 301 303 303 303 300 294 296
312 312 313 312 312 311 312 313 313 314 310 306 303 305 305 304 303 307 306 305 305 306 305 304 305 304 302 302 301 301 301 302 301 303 302 299 295 299 301 301 301 301 301 302 300 301 300
311 312 312 312 311 311 311 313 313 313 312 305 306 307 303 304 304 307 306 305 305 305 305 304 305 304 302 303 300 300 300 299 299 301 300 298 296 294 296 300 300 301 300 301 301 301 302
311 311 312 311 311 311 311 311 312 313 312 305 304 304 303 305 306 307 307 306 307 305 305 303 303 302 302 302 302 299 298 298 298 298 297 298 296 295 300 299 301 300 300 301 300 299 301
310 310 311 312 311 312 311 311 310 311 312 308 304 303 306 310 306 307 308 307 308 306 306 304 301 301 301 299 298 298 296 296 296 296 297 297 296 298 300 300 306 306 301 301 301 300 300
306 308 309 310 311 311 311 311 310 309 310 310 307 303 305 308 308 307 306 306 305 304 307 306 304 300 298 299 301 301 300 301 300 297 297 297 299 301 301 302 302 305 302 301 301 301 300
302 303 304 305 308 309 309 310 309 308 308 309 309 306 304 306 307 309 305 304 305 304 305 305 298 298 299 301 301 305 307 303 303 301 296 299 298 298 301 304 305 303 299 300 300 299 298
300 300 302 303 302 301 302 305 306 305 309 308 308 309 303 304 303 304 304 308 303 305 306 303 300 299 298 301 304 305 304 301 303 303 300 301 301 302 302 303 303 303 300 300 300 302 302
299 300 300 301 300 299 299 299 299 302 301 304 307 307 305 303 305 304 304 308 309 305 312 303 306 301 299 302 305 304 301 302 299 300 300 302 302 301 301 303 305 301 302 299 300 300 301
298 298 298 299 300 299 299 298 297 298 300 303 305 304 306 303 305 305 306 306 305 305 306 304 307 302 302 303 303 304 303 298 299 301 298 301 301 302 302 302 302 301 301 300 300 300 300
Wind_Speed
28 29 28 29 29 30 30 30 31 32 37 36 30 26 23 24 21 15 13 15 14 11 11 10 7 6 4 6 5 5 4 9 9 13 12 5 7 5 3 4 2 2 3 5 5 7 5
27 28 28 29 29 30 29 29 31 32 34 34 32 31 27 27 25 20 16 12 11 12 13 13 10 8 3 8 6 7 7 7 9 13 10 11 4 4 2 3 2 4 4 7 6 7 5
25 26 27 28 29 28 27 28 29 30 31 31 30 27 26 24 21 17 15 14 13 13 11 10 8 9 11 4 4 4 5 3 5 7 4 7 5 4 3 7 5 5 6 7 8 8 5
24 24 25 25 26 26 26 26 28 28 28 28 26 24 22 19 17 17 16 15 12 8 7 6 6 12 4 5 3 4 2 3 5 6 5 4 5 1 2 3 7 5 2 4 6 5 4
22 23 23 23 24 24 25 25 24 25 25 25 24 20 18 16 13 11 10 11 8 4 4 8 5 7 2 2 1 4 4 5 8 5 5 6 2 1 4 2 4 6 3 4 8 7 4
21 22 24 24 24 24 23 22 22 21 21 21 19 19 17 15 11 8 8 5 10 10 3 2 2 4 2 1 3 4 4 5 2 8 6 1 3 2 3 2 3 5 5 5 7 5 6
20 20 21 22 22 22 22 21 20 19 18 18 16 14 14 16 17 10 6 4 6 5 9 2 2 1 1 4 5 3 4 4 3 1 2 2 2 4 7 5 6 4 5 7 7 8 6
18 19 20 19 19 19 19 19 19 18 18 16 14 11 8 10 12 18 18 7 3 0 3 1 1 1 1 2 3 4 2 1 2 2 3 4 4 7 6 5 4 2 5 7 7 4 4
18 18 18 19 19 18 17 16 16 17 17 16 14 11 10 10 7 10 17 8 4 1 1 3 2 2 3 1 2 2 1 2 1 3 2 4 6 6 3 4 5 3 5 5 6 7 5
17 17 18 18 18 18 18 17 16 15 15 15 13 10 10 11 2 7 3 7 3 1 4 5 3 2 1 1 2 2 1 2 3 2 5 5 3 1 3 4 1 5 3 5 8 6 4
18 18 17 17 17 18 18 19 18 17 17 16 16 11 8 6 3 1 2 7 2 1 5 3 4 2 2 0 3 2 0 2 2 4 4 6 3 3 3 3 0 7 4 5 4 3 4
17 17 18 17 17 18 18 18 19 20 19 19 20 12 5 3 5 2 8 6 1 6 3 4 2 3 3 1 2 2 2 2 3 3 2 7 3 3 5 3 4 6 5 5 0 1 2
18 16 16 17 17 18 18 18 19 21 22 21 19 11 4 3 3 8 4 2 5 6 2 5 3 3 3 3 2 2 2 4 3 6 5 6 3 2 2 3 5 6 4 4 4 2 5
19 19 16 16 17 18 19 20 20 21 23 26 15 7 2 3 6 4 2 5 7 3 3 3 3 3 2 2 2 2 1 2 3 3 3 3 7 2 2 3 3 2 0 2 5 3 5
18 19 19 18 18 19 19 21 22 22 24 25 13 4 2 2 4 1 4 5 5 5 2 5 5 2 3 2 1 3 1 3 3 3 1 5 6 5 3 2 5 1 1 1 3 2 4
20 20 19 19 19 18 19 20 23 24 25 19 8 3 2 4 3 3 4 3 3 3 2 1 0 1 3 4 2 4 2 3 5 4 5 2 6 3 4 2 1 2 1 4 2 4 5
20 20 19 19 19 18 19 20 22 24 25 15 3 3 2 3 1 4 2 4 3 2 3 4 3 3 3 3 2 2 4 2 4 4 4 4 4 6 2 4 5 1 1 1 3 3 3
19 20 19 18 18 18 18 19 20 23 25 13 3 2 2 2 3 1 1 3 1 3 1 3 2 4 4 2 3 3 4 5 7 6 4 3 3 5 10 4 4 3 6 5 4 4 3
18 19 18 18 18 18 18 17 17 19 21 10 2 2 0 1 1 2 4 3 2 3 3 3 3 5 2 3 3 4 4 2 7 7 6 5 2 5 8 5 3 4 4 4 4 2 6
18 19 18 17 17 17 17 16 15 15 16 12 2 3 3 3 1 2 2 3 2 2 3 3 4 2 2 3 5 4 3 2 5 4 6 4 3 7 7 7 3 4 5 6 5 3 3
17 17 17 16 16 15 16 15 14 13 13 9 2 2 1 3 2 2 1 2 3 3 4 4 3 7 7 4 3 5 5 1 2 5 3 3 6 5 13 19 15 18 16 12 11 10 7
18 17 17 16 15 14 14 14 12 11 10 3 1 1 1 3 3 3 4 4 4 3 6 5 5 2 7 6 8 6 5 4 7 2 6 3 4 2 7 9 9 10 16 19 19 20 21
18 18 17 16 16 14 12 12 11 11 6 2 2 1 2 3 2 2 4 6 7 5 5 4 9 3 6 14 11 7 6 4 5 9 8 5 2 3 6 5 8 7 9 14 6 6 17
19 19 18 16 16 13 12 10 10 10 10 6 3 1 1 4 3 5 3 4 7 7 6 3 5 5 5 1 4 4 4 6 7 7 5 6 3 2 5 7 3 4 3 9 13 7 17
17 17 17 17 16 14 12 12 11 11 11 15 8 5 3 4 5 8 10 9 8 6 6 7 7 2 2 4 3 6 3 4 1 2 6 4 4 3 3 3 9 3 3 6 7 8 13
14 16 15 16 15 14 16 13 13 12 12 15 19 15 3 2 7 12 4 4 5 4 3 4 2 3 4 2 1 3 4 4 3 2 6 4 4 3 2 3 5 3 1 2 2 6 5
14 14 14 15 14 14 15 16 16 13 13 13 12 16 6 3 4 6 5 5 4 3 3 2 3 2 1 3 3 5 5 4 5 8 6 4 3 7 6 5 10 10 4 5 1 5 2
14 14 13 15 15 13 13 14 16 15 15 15 11 15 13 4 7 10 7 9 9 4 7 2 1 1 2 4 4 4 4 5 3 6 7 10 10 6 5 5 10 7 4 6 6 2 3
14 14 14 14 15 16 16 14 13 13 14 13 12 18 23 13 6 8 20 28 24 20 8 5 5 4 5 3 3 1 4 1 5 4 3 3 7 7 12 9 4 7 7 7 4 4 6
Wind_Direction
39 40 40 41 39 36 36 40 42 51 60 62 68 76 86 87 110 107 75 74 85 96 107 105 85 45 29 51 53 35 41 12 13 1 26 15 30 6 13 331 299 256 288 321 309 300 269
43 40 39 38 41 42 41 42 40 50 57 67 76 78 80 80 86 84 82 78 90 91 78 67 52 51 75 82 3 43 16 6 8 21 18 46 24 318 329 307 314 306 290 287 296 284 265
43 44 42 40 39 40 44 47 42 47 54 61 68 77 82 88 88 89 75 80 81 86 69 55 52 74 60 97 13 332 318 17 19 27 39 28 19 54 337 323 316 280 301 309 265 259 233
43 44 46 44 42 39 39 45 50 51 57 61 63 65 68 72 79 79 82 96 94 69 44 26 34 66 62 40 36 17 42 291 337 348 354 338 339 301 195 300 333 313 14 342 303 339 233
40 43 44 45 42 42 45 47 50 54 52 46 50 60 68 66 63 74 83 80 54 32 39 36 51 88 158 287 235 333 343 343 330 337 280 289 332 293 343 300 344 10 309 318 322 306 279
37 41 44 46 46 45 46 46 44 40 39 40 44 47 48 45 49 86 100 35 35 47 31 15 87 62 348 251 292 334 343 321 334 341 346 94 38 17 1 55 249 271 264 235 243 279 311
35 38 43 45 44 45 43 42 40 36 32 30 34 42 49 49 40 16 296 331 15 352 32 91 280 108 358 323 295 295 326 330 311 124 237 238 75 274 266 243 245 246 256 267 266 264 280
34 33 38 39 39 40 38 37 36 33 30 28 27 25 35 29 28 39 60 78 141 46 329 7 87 13 319 352 333 280 310 20 337 298 311 19 258 257 257 268 304 313 291 292 285 290 301
31 29 29 32 33 31 32 32 29 26 25 23 19 14 357 344 358 20 54 59 44 13 144 301 240 223 250 55 294 271 66 353 311 307 319 164 249 307 294 304 306 274 263 274 272 310 264
26 26 24 24 24 24 23 19 18 17 13 9 8 4 352 348 71 359 59 13 350 302 72 303 343 299 291 213 289 212 170 128 348 291 320 246 270 90 328 283 4 301 256 284 296 350 282
21 21 18 19 17 15 15 14 10 3 1 358 350 336 335 346 331 58 331 341 331 137 48 270 301 237 328 4 288 285 100 63 257 264 82 261 260 270 301 227 231 251 291 280 259 261 310
17 15 16 13 11 9 8 8 5 2 356 350 344 332 305 334 331 318 318 328 129 39 290 350 302 324 357 179 271 337 357 12 257 294 227 242 283 243 218 246 216 279 312 310 222 136 306
12 10 9 11 8 5 3 0 360 359 353 347 340 335 282 292 333 326 332 71 34 83 326 318 326 347 348 283 301 205 312 358 25 9 357 321 256 271 191 330 3 35 46 334 346 349 233
5 6 4 4 2 4 1 357 353 353 351 347 344 340 323 274 320 335 114 51 68 245 263 304 308 305 247 323 257 271 347 358 30 64 327 14 332 210 177 190 221 258 48 137 301 304 287
3 0 1 359 357 356 357 356 353 350 350 347 350 6 43 38 341 337 73 52 195 198 259 332 319 327 308 265 266 14 234 183 170 126 43 355 276 316 230 192 129 349 56 299 258 197 278
355 357 356 353 351 349 349 350 351 351 349 347 349 1 45 348 351 354 71 203 205 219 194 159 293 16 318 308 339 10 250 189 171 168 143 186 300 265 308 31 257 185 207 47 342 328 298
345 349 352 346 346 345 342 346 348 349 351 346 7 47 8 347 356 50 121 236 256 195 178 183 227 273 243 278 253 250 256 197 191 182 165 164 134 288 338 208 190 117 288 159 130 187 204
334 337 342 343 340 341 341 342 347 347 353 351 4 36 357 338 51 88 155 218 311 211 164 252 212 234 233 256 254 252 239 214 172 156 191 216 166 262 230 266 300 203 202 160 134 254 212
323 327 333 339 339 339 340 340 343 346 353 347 2 266 39 7 88 321 291 272 233 209 226 193 244 211 225 259 283 224 247 180 169 160 173 171 266 324 340 6 356 244 220 151 112 59 222
320 323 329 333 335 335 336 338 338 340 345 350 8 343 329 49 162 158 343 270 255 196 255 212 242 206 170 259 223 286 269 225 200 197 145 143 192 201 214 227 168 220 216 192 147 140 210
309 311 319 321 329 332 332 334 331 329 336 341 47 303 233 296 302 183 76 269 262 234 207 203 272 223 188 238 243 221 234 248 176 198 145 158 225 213 252 261 259 257 244 223 209 211 206
300 301 309 314 318 325 327 331 332 324 325 310 297 348 28 276 292 221 187 229 220 259 168 230 215 249 201 221 211 237 194 199 219 137 166 189 277 8 281 258 241 251 242 235 234 240 246
293 295 297 300 308 312 318 317 325 328 302 286 266 244 121 266 265 203 233 213 202 171 248 205 207 200 239 239 246 250 230 226 217 164 187 170 183 21 267 337 309 293 225 196 196 209 220
295 290 290 294 298 302 307 306 309 313 290 244 249 226 172 264 207 214 256 230 237 213 237 231 179 184 229 98 297 260 227 232 204 213 178 147 139 182 282 335 315 248 181 174 202 225 208
302 302 299 292 287 296 296 293 295 301 301 258 243 198 208 249 231 277 263 258 272 256 236 234 231 207 112 41 327 319 313 343 227 43 187 166 134 275 278 274 295 276 185 159 185 278 211
319 313 313 305 298 292 285 282 294 294 290 280 264 235 219 255 217 236 256 237 248 233 274 236 76 117 102 132 158 254 246 244 223 97 24 101 94 146 325 276 267 264 177 171 174 293 203
311 314 313 314 317 312 305 296 285 285 279 276 257 261 222 243 243 204 213 249 212 226 239 161 173 141 88 162 199 213 238 184 208 180 172 149 187 217 225 267 277 261 192 143 265 253 331
309 310 309 308 312 312 317 316 314 298 286 279 266 266 232 237 244 232 221 240 254 242 260 161 41 181 125 191 199 228 215 225 183 166 180 173 165 195 179 209 271 157 98 181 222 232 244
308 309 305 300 306 309 310 312 313 311 297 289 270 268 268 239 265 245 247 258 264 263 274 218 220 159 206 175 216 236 250 218 195 245 128 224 203 186 194 211 264 201 223 225 236 243 256